Regional Weather Roundup
Issued by NWS

Home | Current Version | Previous Version | Graphics & Text | Print | Product List | Glossary Off
Versions: 1 2 3 4 5 6 7 8 9 10 11 12 13 14 15 16 17 18 19 20 21 22 23 24 25 26 27 28 29 30 31 32 33 34 35 36 37 38 39 40 41 42 43 44 45 46 47 48 49 50

000
ASUS43 KMKX 231300
RWRWI

WISCONSIN REGIONAL WEATHER ROUNDUP
NATIONAL WEATHER SERVICE MILWAUKEE/SULLIVAN WI
800 AM CDT SAT MAY 23 2015

NOTE: "FAIR" INDICATES FEW OR NO CLOUDS BELOW 12,000 FEET WITH NO
SIGNIFICANT WEATHER AND/OR OBSTRUCTIONS TO VISIBILITY.

WIZ001-002-006>008-014>016-023>028-231400-
NORTHWEST WISCONSIN

CITY           SKY/WX    TMP DP  RH WIND       PRES   REMARKS
SUPERIOR ARPT  SUNNY     55  41  58 SW7       30.23S
ASHLAND        SUNNY     62  41  46 SW7       30.23F
HAYWARD        SUNNY     57  42  57 CALM      30.26S
SIREN          SUNNY     52  42  67 CALM      30.25S
CUMBERLAND     SUNNY     50  45  81 CALM      30.26S
RICE LAKE      SUNNY     50  43  78 CALM      30.28S
CHETEK         SUNNY     52  43  72 CALM      30.27R
LADYSMITH      SUNNY     50  43  77 CALM      30.29S
EAU CLAIRE     MOSUNNY   55  44  66 MISG      30.26S
MENOMONIE      SUNNY     51  47  85 CALM      30.26S
NEW RICHMOND   SUNNY     55  44  67 CALM      30.25R
OSCEOLA        SUNNY     54  45  72 CALM      30.28R
$$

WIZ003>005-009-010-017-018-231400-
NORTH CENTRAL WISCONSIN

CITY           SKY/WX    TMP DP  RH WIND       PRES   REMARKS
MANITOWISH WTR SUNNY     53  40  60 S3        30.27S
ARBOR VITAE    SUNNY     54  41  60 SW3       30.27S
WOODRUFF       SUNNY     54  41  60 SW3       30.27S
RHINELANDER    SUNNY     56  39  53 SW8       30.29S
EAGLE RIVER    SUNNY     53  35  50 SW7       30.27F
LAND O LAKES   SUNNY     52  38  57 SW3       30.28S
PHILLIPS       SUNNY     53  42  66 CALM      30.27S
TOMAHAWK       SUNNY     49  42  75 CALM      30.29S
MEDFORD        SUNNY     51  42  72 S5        30.29R
MERRILL        SUNNY    N/A N/A N/A CALM      30.30S
$$

WIZ029-030-035-036-043>047-231400-
CENTRAL WISCONSIN

CITY           SKY/WX    TMP DP  RH WIND       PRES   REMARKS
WAUSAU         SUNNY     53  42  66 S5        30.29R
MOSINEE        SUNNY     52  45  76 S5        30.31R
MARSHFIELD     SUNNY     55  43  63 S6        30.29S
STEVENS POINT  SUNNY     53  35  49 SW8       30.31S
WAUPACA        SUNNY     54  38  53 CALM      30.32R
WAUTOMA        NOT AVBL
WISC RAPIDS    SUNNY     56  36  47 S7        30.31F
CAMP DOUGLAS   NOT AVBL
$$

WIZ011>013-019>022-031-037>040-048>050-231400-
NORTHEAST WISCONSIN

CITY           SKY/WX    TMP DP  RH WIND       PRES   REMARKS
ANTIGO         SUNNY     51  40  68 W5        30.30S
SHAWANO        SUNNY     53  38  55 SW5       30.31S
OCONTO         SUNNY     52  37  56 SW5       30.30S
STURGEON BAY   SUNNY     54  32  43 SW9       30.34R
GREEN BAY      SUNNY     57  36  45 SW9       30.32S
MANITOWOC      NOT AVBL
APPLETON       MOSUNNY   55  32  41 SW9       30.33R
CLINTONVILLE   SUNNY     52  36  54 SW3       30.31S
OSHKOSH        SUNNY     59  35  40 S10       30.32R
$$

WIZ032>034-041-042-053>061-231400-
SOUTHWEST WISCONSIN

CITY           SKY/WX    TMP DP  RH WIND       PRES   REMARKS
LA CROSSE      PTSUNNY   56  45  66 SE5       30.27S
SPARTA         MOSUNNY   48  43  83 CALM      30.29S
VIROQUA        PTSUNNY   55  38  52 SE9       30.29S
BOSCOBEL       MOSUNNY   57  45  64 CALM      30.30S
PRAIRIE DU CHI PTSUNNY   56  43  60 E6        30.29R
PLATTEVILLE    MOSUNNY   56  40  56 SE7       30.30S
$$

WIZ056-057-062-063-064-067-068-231400-
SOUTH CENTRAL WISCONSIN

CITY           SKY/WX    TMP DP  RH WIND       PRES   REMARKS
REEDSBURG      SUNNY     56  36  46 CALM      30.31S
BARABOO/DELLS  SUNNY     59  32  36 S6        30.31S
LONE ROCK      NOT AVBL
MINERAL POINT  MOSUNNY   54  37  54 SE8       30.30S
MADISON        MOSUNNY   57  34  41 S7        30.32S
MIDDLETON      SUNNY     60  28  29 S6        30.32S
WATERTOWN      SUNNY     53  37  54 S3        30.33S
MONROE         SUNNY     55  36  47 S13       30.31S
JANESVILLE     SUNNY     57  37  47 CALM      30.32S
$$

WIZ051-052-058>065-066-070>072-231400-
SOUTHEAST WISCONSIN

CITY           SKY/WX    TMP DP  RH WIND       PRES   REMARKS
MILWAUKEE      MOSUNNY   58  34  40 S9        30.34S
WAUKESHA       MOSUNNY   54  32  43 SW7       30.34S
MILWAUKEE/TIMM SUNNY     55  30  38 S5        30.34S
RACINE         SUNNY     59  35  40 SW7       30.35S
BURLINGTON     SUNNY     52  37  57 CALM      30.34S
KENOSHA        SUNNY     59  37  44 S9        30.34S
FOND DU LAC    SUNNY     58  33  39 SW10      30.32S
SHEBOYGAN      SUNNY     60  30  32 SW8       30.33R
WEST BEND      SUNNY     59  30  33 SW3       30.33S
JUNEAU         SUNNY     53  34  49 S7        30.34S
$$

LSZ147-162-231400-
LAKE SUPERIOR

STATION/POSITION TIME  TEMP    WIND        PRES    WAVE
                       AIR SEA DIR/SP/G            HT/PER
                 (UTC) (F)     (DEG/KT/KT) (MB)    (FT/S)
W MID LAKE BUOY  1150   43 36  220/ 12/ 14   N/A     1
DEVILS ISLAND    1200   52     230/ 17/ 18   N/A
PORT WING        1240   60     280/  4/  7   N/A
SAXON HARBOR     1200   59     190/  6/  9   N/A
$$

LMZ867-665-643>646-231400-
LAKE MICHIGAN

STATION/POSITION TIME  TEMP    WIND        PRES    WAVE
                       AIR SEA DIR/SP/G            HT/PER
                 (UTC) (F)     (DEG/KT/KT) (MB)    (FT/S)
CHAMBERS ISLAND  1200   53     200/  6/ 12   N/A
N MID LAKE BUOY  1150   39 36  200/ 10/ 12   N/A     0
NORTHPORT PIER   1200   51     140/  4/  5   N/A
SISTER BAY       1118   50     200/  3/  7   N/A
KEWAUNEE LAKESHO 1200   50      CALM  /  1   N/A
SHEBOYGAN LAKESH 1200   52     180/  7/  7   N/A
PORT WASHINGTON  1200   51     170/  5/  6   N/A
ATWATER BUOY     1200   49 45  160/  4/  4   N/A
MILWAUKEE LAKESH 1200   53     190/  4/  4   N/A
S MID LAKE BUOY  1150   43 38  160/  6/  6   N/A     0
KENOSHA   LAKESH 1200   55     200/  4/  7   N/A
$$

TC  - TEMPERATURE IN CELSIUS
VSB - VISIBILITY IN STATUTE MILES
WCI - WIND CHILL INDEX
HX  - HEAT INDEX




USA.gov is the U.S. government's official web portal to all federal, state and local government web resources and services.